DW0417 Weather Reports


time (UTC)temp
F
wind
direction
speed
knots
gust
knots
rain 1hr
in
rain 24hr
in
rain mn
in
humidity
%
barometer
mb
20260902152747 76 77 5.2 11.3 0.00 0.00 0.00 43 1017.9
20260902151746 76 23 2.6 8.7 0.00 0.00 0.00 44 1017.9
20260902150747 75 79 3.5 7.0 0.00 0.00 0.00 48 1017.9
20260902145746 74 71 2.6 7.8 0.00 0.00 0.00 49 1017.8
20260902145217 72 47 3.5 6.1 0.00 0.00 0.00 54 1017.8
20260902144212 71 63 1.7 4.3 0.00 0.00 0.00 56 1017.8
20260902142740 70 80 0.9 4.3 0.00 0.00 0.00 55 1017.8
20260902141741 68 82 1.7 5.2 0.00 0.00 0.00 58 1017.8
20260902140741 67 61 2.6 4.3 0.00 0.00 0.00 58 1017.8
20260902135741 66 82 0.9 2.6 0.00 0.00 0.00 60 1017.8
20260902134739 64 82 0.9 3.5 0.00 0.00 0.00 59 1017.8
20260902133741 63 87 0.0 0.9 0.00 0.00 0.00 63 1017.8
20260902133657 62 87 0.9 2.6 0.00 0.00 0.00 64 1017.8
20260902131735 61 87 0.0 0.0 0.00 0.00 0.00 62 1017.6
20260902130732 62 342 0.0 0.0 0.00 0.00 0.00 59 1017.3
20260902130212 62 245 0.0 0.0 0.00 0.00 0.00 58 1017.3
20260902124733 62 225 0.9 3.5 0.00 0.00 0.00 59 1017.2
20260902124202 60 231 0.9 3.5 0.00 0.00 0.00 62 1017.2
20260902122730 58 229 0.9 4.3 0.00 0.00 0.00 69 1017.2
20260902121730 56 99 0.0 3.5 0.00 0.00 0.00 73 1017.2
20260902120730 55 305 0.0 1.7 0.00 0.00 0.00 74 1017.0
20260902120210 56 193 0.0 0.9 0.00 0.00 0.00 74 1017.1
20260902114730 57 195 0.9 3.5 0.00 0.00 0.00 71 1017.0
20260902113731 58 162 0.0 1.7 0.00 0.00 0.00 69 1017.0
20260902113211 59 231 0.0 0.9 0.00 0.00 0.00 69 1017.0
20260902111726 59 232 0.0 1.7 0.00 0.00 0.00 67 1017.0
20260902111213 58 231 0.9 2.6 0.00 0.00 0.00 70 1017.0
20260902110211 58 205 0.0 1.7 0.00 0.00 0.00 71 1017.0
20260902104726 58 295 0.0 1.7 0.00 0.00 0.00 71 1017.1
20260902103725 57 299 0.9 2.6 0.00 0.00 0.00 73 1017.1
20260902103651 57 53 0.0 0.0 0.00 0.00 0.00 73 1016.9
20260902102159 57 49 0.0 0.0 0.00 0.00 0.00 74 1017.1
20260902100725 58 49 0.0 0.9 0.00 0.00 0.00 71 1016.9
20260902095725 59 50 0.0 0.9 0.00 0.00 0.00 69 1016.9
20260902094724 60 50 0.0 2.6 0.00 0.00 0.00 67 1016.9
20260902093719 60 224 0.0 1.7 0.00 0.00 0.00 64 1016.9
20260902092718 60 228 0.0 1.7 0.00 0.00 0.00 65 1016.9
20260902091717 61 195 0.0 0.0 0.00 0.00 0.00 64 1016.7
20260902090717 61 39 0.0 0.0 0.00 0.00 0.00 64 1016.9
20260902090152 61 39 0.0 0.0 0.00 0.00 0.00 66 1016.9
20260902085156 62 39 0.0 0.0 0.00 0.00 0.00 64 1016.7
20260902083717 63 39 0.0 0.0 0.00 0.00 0.00 61 1016.7
20260902082717 64 39 0.0 0.0 0.00 0.00 0.00 59 1016.7
20260902081719 64 39 0.0 1.7 0.00 0.00 0.00 61 1016.6
20260902080713 65 19 1.7 3.5 0.00 0.00 0.00 59 1016.6
20260902080201 66 351 0.0 0.9 0.00 0.00 0.00 54 1016.6
20260902074712 66 225 0.0 0.9 0.00 0.00 0.00 55 1016.6
20260902073711 66 225 0.0 0.9 0.00 0.00 0.00 54 1016.6
20260902072710 69 233 0.0 1.7 0.00 0.00 0.00 48 1016.6
20260902071710 69 229 0.9 2.6 0.00 0.00 0.00 49 1016.7
20260902071152 67 225 0.9 1.7 0.00 0.00 0.00 53 1016.7
20260902065710 67 46 0.0 0.9 0.00 0.00 0.00 51 1016.7
20260902064710 68 46 0.9 1.7 0.00 0.00 0.00 50 1016.7
20260902063704 68 46 0.9 2.6 0.00 0.00 0.00 51 1016.7
20260902062703 67 46 0.0 0.0 0.00 0.00 0.00 52 1016.7
20260902061704 66 46 0.0 0.0 0.00 0.01 0.00 55 1016.9
20260902060703 64 46 0.0 0.9 0.00 0.01 0.00 59 1017.1
20260902055703 64 45 0.0 0.0 0.00 0.01 0.01 58 1017.1
20260902054703 64 46 0.0 0.9 0.00 0.01 0.01 60 1017.1
20260902053704 64 46 0.0 0.0 0.00 0.01 0.01 61 1017.1
20260902052703 65 46 0.0 0.0 0.00 0.01 0.01 63 1017.0
20260902051704 66 46 0.0 0.9 0.00 0.01 0.01 61 1017.1
20260902050659 65 46 0.0 0.9 0.00 0.01 0.01 58 1017.0
20260902045658 66 46 0.0 1.7 0.00 0.01 0.01 62 1017.0
20260902044658 67 46 0.0 0.9 0.00 0.01 0.01 59 1017.2
20260902043658 68 46 0.0 1.7 0.00 0.01 0.01 58 1017.2
20260902042657 67 46 0.0 0.9 0.00 0.01 0.01 57 1017.3
20260902041657 69 46 0.0 1.7 0.00 0.01 0.01 56 1017.3
20260902040659 70 46 0.0 1.7 0.00 0.01 0.01 55 1017.3
20260902040138 69 46 0.0 0.0 0.00 0.01 0.01 55 1017.4
20260902034659 69 46 0.0 0.0 0.00 0.01 0.01 56 1017.4
20260902033654 71 46 0.0 0.0 0.00 0.01 0.01 54 1017.3
20260902032656 72 46 0.0 0.0 0.00 0.01 0.01 52 1017.2
20260902031655 72 46 0.0 0.9 0.00 0.01 0.01 53 1017.2
20260902030657 74 46 0.9 3.5 0.00 0.01 0.01 51 1017.2
20260902025655 74 46 0.0 3.5 0.00 0.01 0.01 49 1017.1
20260902024655 75 46 0.9 6.1 0.00 0.01 0.01 44 1016.9
20260902023655 75 52 0.9 4.3 0.00 0.03 0.01 44 1016.5
20260902022656 76 54 0.9 2.6 0.00 0.03 0.01 44 1016.5
20260902021653 76 65 0.0 2.6 0.00 0.03 0.01 42 1016.4
20260902021134 76 65 0.0 2.6 0.00 0.03 0.01 42 1016.4
20260902015653 78 66 0.9 4.3 0.00 0.03 0.01 38 1016.3
20260902015144 77 79 0.9 3.5 0.00 0.03 0.01 39 1016.2
20260902013652 77 46 0.0 0.9 0.00 0.03 0.01 41 1015.8
20260902012652 79 46 0.0 1.7 0.00 0.03 0.01 38 1015.7
20260902012135 81 46 0.0 3.5 0.00 0.03 0.01 35 1015.7
20260902010653 82 46 0.0 2.6 0.00 0.03 0.01 33 1015.7
20260902005652 82 46 0.9 4.3 0.00 0.03 0.01 34 1015.5
20260902004648 82 47 0.0 2.6 0.00 0.03 0.01 36 1015.7
20260902003646 82 47 0.0 1.7 0.00 0.03 0.01 35 1015.7
20260902002646 82 47 0.9 3.5 0.00 0.03 0.01 34 1015.6
20260902002121 82 47 0.9 4.3 0.00 0.03 0.01 34 1015.7
20260902000646 83 47 0.9 4.3 0.00 0.03 0.01 34 1015.7
20260902000132 84 52 0.0 2.6 0.00 0.03 0.01 32 1015.7
20260901234644 85 52 0.0 3.5 0.00 0.03 0.01 31 1015.6
20260901233644 85 67 0.0 3.5 0.00 0.03 0.01 30 1015.6
20260901232646 86 308 1.7 7.0 0.00 0.03 0.01 28 1015.5
20260901231644 86 44 1.7 5.2 0.00 0.03 0.01 29 1015.5
20260901230644 87 47 0.9 4.3 0.00 0.03 0.01 29 1015.5
20260901225645 86 46 0.9 5.2 0.00 0.03 0.01 30 1015.3
20260901224645 86 53 1.7 5.2 0.00 0.03 0.01 31 1015.3
20260901223644 86 326 2.6 7.8 0.00 0.03 0.01 30 1015.3
20260901222639 85 46 2.6 8.7 0.00 0.03 0.01 32 1015.3
20260901221638 85 51 3.5 7.8 0.00 0.03 0.01 32 1015.6
20260901221116 85 306 1.7 6.1 0.00 0.03 0.01 29 1015.7
20260901215639 85 190 2.6 9.6 0.00 0.03 0.01 27 1015.9
20260901214639 85 225 2.6 6.1 0.00 0.03 0.01 26 1016.0
20260901213639 85 216 6.1 13.0 0.00 0.03 0.01 26 1016.2
20260901213121 85 186 9.6 16.5 0.00 0.03 0.01 26 1016.3
20260901211639 86 167 9.6 19.1 0.00 0.03 0.01 25 1016.3
20260901211128 85 221 7.0 15.6 0.00 0.03 0.01 27 1016.4
20260901205636 84 101 7.0 13.0 0.00 0.03 0.01 34 1016.5
20260901205116 85 87 7.8 13.9 0.00 0.03 0.01 33 1016.3
20260901203634 86 150 9.6 16.5 0.00 0.03 0.01 31 1016.4
20260901202634 87 174 7.0 15.6 0.00 0.03 0.01 25 1016.5
20260901201633 86 96 5.2 13.9 0.00 0.03 0.01 31 1016.6
20260901200633 85 71 2.6 8.7 0.00 0.03 0.01 33 1016.6
20260901195634 85 122 8.7 14.8 0.00 0.03 0.01 33 1016.6
20260901194633 86 90 7.0 15.6 0.00 0.03 0.01 33 1016.7
20260901193634 85 86 3.5 11.3 0.00 0.03 0.01 31 1016.6
20260901192628 85 293 3.5 8.7 0.00 0.03 0.01 29 1016.9
20260901192109 84 340 1.7 5.2 0.00 0.03 0.01 30 1016.7
20260901190627 83 273 3.5 9.6 0.00 0.03 0.01 30 1016.9
20260901185627 83 272 7.8 18.2 0.00 0.03 0.01 32 1017.1
20260901184628 83 203 7.0 11.3 0.00 0.03 0.01 30 1017.2
20260901183626 83 190 8.7 17.4 0.00 0.03 0.01 31 1017.3
20260901182626 84 192 7.0 13.9 0.00 0.03 0.01 32 1017.6
20260901181627 84 153 7.0 14.8 0.00 0.03 0.01 30 1017.6
20260901180626 83 176 9.6 15.6 0.00 0.03 0.01 30 1017.7
20260901180109 83 164 11.3 20.9 0.00 0.03 0.01 32 1017.9
20260901174624 82 195 12.2 20.0 0.00 0.03 0.01 33 1018.0
20260901173624 81 191 12.2 18.2 0.00 0.03 0.01 32 1017.9
20260901172623 82 160 10.4 17.4 0.00 0.03 0.01 33 1018.0
20260901171624 81 215 2.6 8.7 0.00 0.03 0.01 36 1018.3
20260901170624 80 186 1.7 6.1 0.00 0.03 0.01 38 1018.5
20260901165624 79 297 2.6 6.1 0.00 0.03 0.01 39 1018.4
20260901164625 79 46 0.9 4.3 0.00 0.03 0.01 43 1018.5
20260901163622 77 39 0.9 5.2 0.00 0.03 0.01 51 1018.5
20260901162623 76 53 2.6 6.1 0.00 0.03 0.01 61 1018.6
20260901161623 75 75 2.6 6.1 0.00 0.03 0.01 53 1018.7
20260901160621 73 108 2.6 6.1 0.00 0.03 0.01 60 1018.7
20260901155622 71 148 0.9 3.5 0.00 0.03 0.01 70 1018.8
20260901154622 70 45 0.9 2.6 0.00 0.03 0.01 72 1019.0